| time (UTC) | temp F | wind direction | speed MPH | gust MPH | rain 1hr in | rain 24hr in | rain mn in | humidity % | barometer mb |
| 20260510134550 | 66 | 235 | 0.0 | 3.0 | 0.00 | 0.07 | 0.00 | 76 | 1013.4 |
| 20260510133042 | 64 | 216 | 0.0 | 1.0 | 0.00 | 0.07 | 0.00 | 80 | 1013.6 |
| 20260510131538 | 62 | 247 | 0.0 | 3.0 | 0.00 | 0.07 | 0.00 | 82 | 1013.6 |
| 20260510130034 | 60 | 221 | 0.0 | 2.0 | 0.00 | 0.07 | 0.00 | 86 | 1013.5 |
| 20260510124529 | 59 | 217 | 0.0 | 1.0 | 0.00 | 0.07 | 0.00 | 90 | 1013.4 |
| 20260510123026 | 57 | 225 | 0.0 | 1.0 | 0.00 | 0.07 | 0.00 | 92 | 1013.6 |
| 20260510121522 | 56 | 221 | 0.0 | 2.0 | 0.00 | 0.07 | 0.00 | 93 | 1013.6 |
| 20260510120018 | 55 | 227 | 0.0 | 1.0 | 0.00 | 0.07 | 0.00 | 96 | 1013.2 |
| 20260510114514 | 53 | 227 | 0.0 | 0.0 | 0.00 | 0.07 | 0.00 | 97 | 1013.0 |
| 20260510113013 | 52 | 118 | 0.0 | 0.0 | 0.00 | 0.07 | 0.00 | 98 | 1012.8 |
| 20260510111508 | 52 | 162 | 0.0 | 1.0 | 0.00 | 0.07 | 0.00 | 98 | 1012.6 |
| 20260510110014 | 51 | 119 | 0.0 | 2.0 | 0.00 | 0.07 | 0.00 | 98 | 1012.5 |
| 20260510104504 | 51 | 293 | 0.0 | 1.0 | 0.00 | 0.07 | 0.00 | 98 | 1012.2 |
| 20260510103005 | 50 | 139 | 0.0 | 1.0 | 0.00 | 0.07 | 0.00 | 98 | 1012.1 |
| 20260510101504 | 50 | 194 | 0.0 | 2.0 | 0.00 | 0.07 | 0.00 | 97 | 1012.1 |
| 20260510100003 | 50 | 122 | 0.0 | 2.0 | 0.00 | 0.07 | 0.00 | 97 | 1012.2 |
| 20260510094505 | 51 | 153 | 0.0 | 0.0 | 0.00 | 0.07 | 0.00 | 97 | 1012.6 |
| 20260510093100 | 51 | 113 | 0.0 | 1.0 | 0.00 | 0.07 | 0.00 | 97 | 1012.7 |
| 20260510091559 | 51 | 112 | 0.0 | 0.0 | 0.00 | 0.07 | 0.00 | 97 | 1011.7 |
| 20260510090059 | 51 | 112 | 0.0 | 1.0 | 0.00 | 0.07 | 0.00 | 98 | 1011.3 |
| 20260510084605 | 50 | 115 | 0.0 | 1.0 | 0.00 | 0.07 | 0.00 | 97 | 1011.2 |
| 20260510083115 | 51 | 137 | 0.0 | 0.0 | 0.00 | 0.07 | 0.00 | 97 | 1011.3 |
| 20260510081613 | 51 | 137 | 0.0 | 1.0 | 0.00 | 0.07 | 0.00 | 98 | 1011.2 |
| 20260510080056 | 51 | 129 | 0.0 | 1.0 | 0.00 | 0.07 | 0.00 | 98 | 1011.3 |
| 20260510074555 | 50 | 131 | 0.0 | 1.0 | 0.00 | 0.07 | 0.00 | 98 | 1011.3 |
| 20260510073054 | 50 | 133 | 0.0 | 3.0 | 0.00 | 0.07 | 0.00 | 98 | 1011.1 |
| 20260510071554 | 50 | 131 | 0.0 | 1.0 | 0.00 | 0.07 | 0.00 | 98 | 1011.4 |
| 20260510070053 | 50 | 131 | 0.0 | 1.0 | 0.00 | 0.07 | 0.00 | 98 | 1011.7 |
| 20260510064551 | 50 | 120 | 0.0 | 1.0 | 0.00 | 0.07 | 0.00 | 98 | 1011.4 |
| 20260510063050 | 50 | 120 | 0.0 | 0.0 | 0.00 | 0.07 | 0.00 | 97 | 1010.8 |
| 20260510061601 | 49 | 120 | 0.0 | 0.0 | 0.00 | 0.07 | 0.00 | 97 | 1011.1 |
| 20260510060049 | 50 | 120 | 0.0 | 0.0 | 0.00 | 0.07 | 0.00 | 97 | 1011.3 |
| 20260510054545 | 50 | 120 | 0.0 | 0.0 | 0.00 | 0.07 | 0.00 | 97 | 1011.0 |
| 20260510053053 | 50 | 120 | 0.0 | 0.0 | 0.00 | 0.07 | 0.00 | 97 | 1010.6 |
| 20260510051543 | 50 | 120 | 0.0 | 0.0 | 0.00 | 0.07 | 0.00 | 96 | 1010.6 |
| 20260510050041 | 50 | 120 | 0.0 | 0.0 | 0.00 | 0.07 | 0.00 | 96 | 1010.7 |
| 20260510044538 | 51 | 120 | 0.0 | 0.0 | 0.00 | 0.07 | 0.00 | 96 | 1010.7 |
| 20260510043041 | 51 | 120 | 0.0 | 0.0 | 0.00 | 0.07 | 0.00 | 96 | 1010.7 |
| 20260510041539 | 51 | 120 | 0.0 | 0.0 | 0.00 | 0.07 | 0.00 | 95 | 1010.7 |
| 20260510040036 | 51 | 120 | 0.0 | 0.0 | 0.00 | 0.07 | 0.00 | 95 | 1010.8 |
| 20260510034534 | 52 | 120 | 0.0 | 0.0 | 0.00 | 0.07 | 0.07 | 95 | 1010.9 |
| 20260510033033 | 52 | 120 | 0.0 | 0.0 | 0.00 | 0.07 | 0.07 | 94 | 1010.8 |
| 20260510031533 | 52 | 120 | 0.0 | 0.0 | 0.00 | 0.07 | 0.07 | 94 | 1010.9 |
| 20260510030034 | 53 | 120 | 0.0 | 0.0 | 0.00 | 0.07 | 0.07 | 93 | 1011.0 |
| 20260510024534 | 53 | 120 | 0.0 | 0.0 | 0.00 | 0.07 | 0.07 | 92 | 1010.8 |
| 20260510023027 | 54 | 120 | 0.0 | 0.0 | 0.00 | 0.07 | 0.07 | 91 | 1010.7 |
| 20260510021533 | 54 | 124 | 0.0 | 0.0 | 0.00 | 0.07 | 0.07 | 91 | 1010.4 |
| 20260510020027 | 54 | 124 | 0.0 | 0.0 | 0.00 | 0.07 | 0.07 | 91 | 1010.5 |
| 20260510014527 | 55 | 124 | 0.0 | 1.0 | 0.00 | 0.07 | 0.07 | 90 | 1010.3 |
| 20260510013025 | 55 | 124 | 0.0 | 0.0 | 0.00 | 0.07 | 0.07 | 89 | 1010.1 |
| 20260510011524 | 56 | 124 | 0.0 | 0.0 | 0.00 | 0.07 | 0.07 | 88 | 1010.0 |
| 20260510010024 | 56 | 124 | 0.0 | 0.0 | 0.00 | 0.07 | 0.07 | 86 | 1009.8 |
| 20260510004523 | 57 | 124 | 0.0 | 1.0 | 0.00 | 0.07 | 0.07 | 85 | 1009.7 |
| 20260510003029 | 58 | 120 | 0.0 | 0.0 | 0.00 | 0.07 | 0.07 | 83 | 1009.6 |
| 20260510001523 | 59 | 121 | 0.0 | 0.0 | 0.00 | 0.07 | 0.07 | 80 | 1009.4 |
| 20260510000023 | 60 | 120 | 0.0 | 1.0 | 0.00 | 0.07 | 0.07 | 79 | 1009.3 |
| 20260509234533 | 61 | 117 | 0.0 | 2.0 | 0.00 | 0.07 | 0.07 | 77 | 1009.2 |
| 20260509233020 | 61 | 107 | 0.0 | 1.0 | 0.00 | 0.07 | 0.07 | 78 | 1009.2 |
| 20260509231519 | 61 | 127 | 0.0 | 2.0 | 0.00 | 0.07 | 0.07 | 79 | 1009.1 |
| 20260509230019 | 62 | 120 | 1.0 | 2.0 | 0.00 | 0.07 | 0.07 | 78 | 1009.2 |
| 20260509224517 | 62 | 112 | 0.0 | 1.0 | 0.00 | 0.07 | 0.07 | 77 | 1009.3 |
| 20260509223018 | 62 | 145 | 0.0 | 0.0 | 0.00 | 0.07 | 0.07 | 75 | 1009.3 |
| 20260509221516 | 62 | 189 | 0.0 | 2.0 | 0.00 | 0.07 | 0.07 | 73 | 1009.2 |
| 20260509220015 | 63 | 149 | 0.0 | 1.0 | 0.00 | 0.07 | 0.07 | 71 | 1009.3 |
| 20260509214513 | 63 | 237 | 0.0 | 0.0 | 0.00 | 0.07 | 0.07 | 73 | 1009.4 |
| 20260509213013 | 63 | 240 | 0.0 | 0.0 | 0.00 | 0.07 | 0.07 | 69 | 1009.6 |
| 20260509211512 | 63 | 240 | 0.0 | 1.0 | 0.00 | 0.07 | 0.07 | 71 | 1009.8 |
| 20260509210011 | 63 | 117 | 0.0 | 1.0 | 0.00 | 0.07 | 0.07 | 74 | 1009.9 |
| 20260509204510 | 62 | 102 | 0.0 | 0.0 | 0.00 | 0.07 | 0.07 | 72 | 1009.6 |
| 20260509203011 | 62 | 137 | 0.0 | 2.0 | 0.00 | 0.07 | 0.07 | 70 | 1009.6 |
| 20260509201509 | 63 | 224 | 0.0 | 1.0 | 0.00 | 0.07 | 0.07 | 72 | 1009.7 |
| 20260509200009 | 63 | 224 | 0.0 | 0.0 | 0.00 | 0.07 | 0.07 | 70 | 1009.9 |
| 20260509194507 | 64 | 224 | 0.0 | 1.0 | 0.00 | 0.07 | 0.07 | 67 | 1009.9 |
| 20260509193006 | 64 | 231 | 0.0 | 2.0 | 0.00 | 0.07 | 0.07 | 70 | 1010.0 |
| 20260509191501 | 62 | 135 | 0.0 | 2.0 | 0.00 | 0.07 | 0.07 | 71 | 1010.3 |
| 20260509190100 | 61 | 177 | 0.0 | 1.0 | 0.00 | 0.07 | 0.07 | 76 | 1010.3 |
| 20260509184643 | 60 | 150 | 0.0 | 3.0 | 0.00 | 0.07 | 0.07 | 77 | 1010.4 |
| 20260509183056 | 59 | 135 | 0.0 | 3.0 | 0.00 | 0.07 | 0.07 | 83 | 1010.7 |
| 20260509181550 | 58 | 130 | 0.0 | 4.0 | 0.00 | 0.07 | 0.07 | 82 | 1011.1 |
| 20260509180047 | 57 | 115 | 1.0 | 3.0 | 0.00 | 0.07 | 0.07 | 83 | 1011.2 |
| 20260509174548 | 56 | 218 | 0.0 | 3.0 | 0.00 | 0.07 | 0.07 | 86 | 1011.4 |
| 20260509173048 | 56 | 130 | 0.0 | 1.0 | 0.00 | 0.07 | 0.07 | 87 | 1011.3 |
| 20260509171545 | 56 | 118 | 0.0 | 3.0 | 0.00 | 0.07 | 0.07 | 87 | 1011.3 |
| 20260509170048 | 56 | 126 | 0.0 | 3.0 | 0.00 | 0.07 | 0.07 | 86 | 1011.5 |
| 20260509164544 | 56 | 110 | 0.0 | 1.0 | 0.00 | 0.07 | 0.07 | 88 | 1011.5 |
| 20260509163103 | 56 | 262 | 0.0 | 1.0 | 0.00 | 0.07 | 0.07 | 89 | 1011.9 |
| 20260509161544 | 56 | 261 | 0.0 | 2.0 | 0.00 | 0.07 | 0.07 | 87 | 1011.9 |
| 20260509160044 | 55 | 117 | 0.0 | 2.0 | 0.02 | 0.07 | 0.07 | 92 | 1011.8 |
| 20260509154546 | 54 | 147 | 0.0 | 1.0 | 0.05 | 0.07 | 0.07 | 91 | 1011.8 |
| 20260509153041 | 54 | 240 | 0.0 | 0.0 | 0.07 | 0.07 | 0.07 | 92 | 1011.5 |
| 20260509151541 | 53 | 240 | 0.0 | 0.0 | 0.07 | 0.07 | 0.07 | 92 | 1011.8 |
| 20260509150039 | 54 | 240 | 0.0 | 0.0 | 0.05 | 0.05 | 0.05 | 87 | 1012.0 |
| 20260509144539 | 55 | 240 | 0.0 | 0.0 | 0.02 | 0.02 | 0.02 | 83 | 1012.1 |
| 20260509143045 | 56 | 240 | 0.0 | 1.0 | 0.00 | 0.00 | 0.00 | 79 | 1012.3 |
| 20260509141541 | 57 | 220 | 0.0 | 1.0 | 0.00 | 0.00 | 0.00 | 75 | 1012.3 |
| 20260509140031 | 58 | 227 | 0.0 | 1.0 | 0.00 | 0.00 | 0.00 | 72 | 1012.1 |